Location: La Subertange
(45.8023°N, 1.7460°E)
Time: 06:01:07
(UTC+00:00)

Daily predictions for brighter satellites

Satellite Brightness Start Highest point End
(mag) Time Altitude Azimuth Time Altitude Azimuth Time Altitude Azimuth
GENESIS II 4.3 17:10:24 10° SSW 17:14:23 69° SE 17:18:25 10° NE
CZ-4B R/B 3.4 17:10:27 10° SSE 17:16:03 87° WSW 17:21:36 10° NNW
Okean-O 3.9 17:15:30 10° ESE 17:18:50 21° ENE 17:22:10 10° NNE
AQUARIUS 4.2 17:16:10 10° SSE 17:20:40 84° ENE 17:25:12 10° NNW
Cosmos 1689 Rocket 3.6 17:19:37 10° NE 17:21:39 17° E 17:23:39 10° SE
Cosmos 1400 Rocket 3.8 17:20:16 10° SSE 17:23:47 28° E 17:27:19 10° NNE
Cosmos 1908 4.2 17:21:56 10° SSW 17:25:41 52° WNW 17:29:29 10° N
H-2A R/B 3.5 17:23:12 10° ESE 17:26:51 19° ENE 17:30:32 10° NNE
Cosmos 2227 Rocket 2.7 17:23:23 10° NNW 17:28:37 37° NE 17:33:50 10° ESE
CZ-4 R/B 2.6 17:26:10 10° ESE 17:29:05 21° ENE 17:31:59 10° NNE
Cosmos 2266 Rocket 4.5 17:23:01 10° NNW 17:29:13 70° W 17:35:29 10° S
Cosmos 2058 4.4 17:26:57 10° NNE 17:29:39 17° ENE 17:32:19 10° ESE
Meteor 2-16 Rocket 4.5 17:24:03 10° N 17:30:05 59° ENE 17:36:05 10° SSE
Cosmos 1892 3.9 17:28:03 10° NNE 17:31:06 22° ENE 17:34:09 10° ESE
Cosmos 2263 Rocket 4.2 17:32:06 10° NNE 17:33:12 11° NNE 17:34:20 10° NE
BREEZE-M DEB (TANK) 4.4 17:30:29 10° W 17:34:04 55° N 17:46:14 11° ENE
BREEZE-M R/B 4.4 17:23:03 10° W 17:34:23 62° NNW 17:37:08 13° ENE
Cosmos 1408 4.2 17:32:59 10° NNE 17:35:13 15° ENE 17:37:15 11° ESE
CZ-4C R/B 4.3 17:34:57 10° NNW 17:39:15 18° NNE 17:44:01 10° NE
Cosmos 1300 2.6 17:38:17 10° S 17:42:05 76° E 17:45:55 10° NNE
Cosmos 1953 Rocket 3.5 17:37:42 10° N 17:42:08 77° E 17:46:35 10° SSE
Cosmos 1697 Rocket 3.7 17:41:03 10° SSE 17:45:22 23° ESE 17:49:37 10° NE
Cosmos 2058 Rocket 3.3 17:41:04 10° SSE 17:45:23 51° E 17:49:46 10° NNE
Cosmos 1331 Rocket 4.2 17:40:47 10° SSW 17:45:56 76° WNW 17:51:07 10° NNE
SL-4 R/B 2.8 17:43:22 10° WNW 17:46:35 31° N 17:49:04 16° ENE
IRS-1C Rocket 4.1 17:42:31 10° SSE 17:47:43 64° ENE 17:52:57 10° N
CZ-2D R/B 3.6 17:44:17 10° SE 17:47:52 41° ENE 17:51:29 10° N
SeaSat 1 3.8 17:46:27 15° ENE 17:48:45 20° NE 17:52:16 10° N
Cosmos 1346 Rocket 3.7 17:46:37 10° NNE 17:50:01 26° ENE 17:53:25 10° SE
USA 305 3.7 17:46:46 10° NW 17:50:48 37° NNE 17:53:27 18° ENE
Cosmos 1825 3.8 17:49:47 10° NNE 17:51:38 16° ENE 17:51:38 16° ENE
Cosmos 44 3.3 17:49:01 10° SW 17:53:31 78° NW 17:58:19 10° NNE
Cosmos 1315 Rocket 4.0 17:52:00 10° SE 17:55:02 21° E 17:56:19 18° ENE
NOAA 11 4.4 17:49:46 10° S 17:55:13 78° WSW 18:00:40 10° NNW
USA 215 4.2 17:51:39 14° ENE 17:56:37 35° N 18:02:24 10° NW
USA 306 3.6 17:53:11 10° NW 17:57:13 39° NNE 17:59:35 21° ENE
SAR-Lupe-4 3.5 17:56:15 10° NNE 17:59:51 86° WNW 18:03:26 10° SSW
ERS-2 3.3 17:56:25 10° N 17:59:54 45° WNW 18:03:24 10° SW
BREEZE-M R/B 3.7 17:56:57 10° WNW 18:00:36 56° N 18:05:18 19° E
ATLAS 2AS CENTAUR R/B 4.0 17:54:54 10° NNW 18:01:16 27° NNE 18:05:17 17° ENE
Cosmos 968 Rocket 3.6 17:59:08 10° NNW 18:04:16 55° ENE 18:09:20 10° SE
Cosmos 1340 2.5 18:01:15 10° N 18:05:03 77° E 18:08:49 10° SSE
Cosmos 1980 Rocket 3.5 18:04:19 10° SE 18:07:19 18° ESE 18:07:19 18° ESE
COSMO-SKYMED 1 2.5 18:04:19 10° NNE 18:08:41 85° E 18:13:02 10° SSW
Cosmos 2297 Rocket 2.1 18:02:59 10° NNW 18:08:42 84° ENE 18:14:22 10° SSE
MOS 1 Rocket 4.0 18:05:11 10° NNE 18:09:23 31° E 18:13:47 10° SSE
Cosmos 1076 Rocket 4.2 18:06:18 10° N 18:10:07 31° ENE 18:11:35 25° ESE
Aureole 3 Rocket 3.1 18:07:03 10° S 18:10:58 89° E 18:16:24 10° N
In-Cosmos 22 Rocket 4.0 18:05:52 10° N 18:11:16 80° E 18:16:44 10° SSE
S3M 4.0 18:09:03 10° SSE 18:14:55 52° E 18:20:51 10° NNE
CSL-04 Debris 4.4 18:10:06 10° SE 18:15:16 46° ENE 18:20:28 10° N
Cosmos 1302 Rocket 4.1 18:11:39 10° SSW 18:16:55 78° WNW 18:22:14 10° NNE
SL-08 ROCKET BODY 4.4 18:14:52 10° N 18:20:59 72° E 18:27:08 10° SSE
Lacrosse 5 3.5 18:17:07 10° NW 18:21:08 23° N 18:23:30 17° NE
FALCON 9 DEB 4.4 18:18:40 10° NW 18:21:39 27° NNE 18:22:07 26° NNE
Okean O Rocket 4.4 18:18:22 10° SW 18:21:40 21° W 18:25:00 10° NW
FALCON 9 DEB 3.6 18:19:23 10° WSW 18:22:32 50° NNW 18:23:30 36° NNE
YAOGAN 1 2.4 18:18:37 10° SSE 18:22:54 68° ENE 18:27:13 10° N
Aureole 3 3.6 18:21:41 10° SSW 18:24:45 47° W 18:27:39 10° N
Cosmos 1486 Rocket 3.9 18:19:26 10° NNW 18:24:49 84° ENE 18:30:08 10° SSE
Cosmos 1417 Rocket 4.4 18:19:42 10° S 18:25:57 78° E 18:32:17 10° N
FALCON 9 DEB 3.7 18:23:40 10° W 18:26:46 45° NNW 18:27:30 37° NNE
Milstar 3 4.5 18:23:24 10° SW 18:27:59 19° S 18:31:53 12° SE
Cosmos 1812 Rocket 3.8 18:25:40 10° SSE 18:29:49 42° E 18:30:36 38° ENE
Cosmos 1455 2.2 18:26:55 10° S 18:30:35 54° E 18:31:13 47° ENE
CZ-2C R/B 3.2 18:27:11 10° SSE 18:32:59 82° ENE 18:38:39 10° NNW
Cosmos 1503 Rocket 4.0 18:29:26 10° NNW 18:34:37 60° ENE 18:37:12 29° SE
Cosmos 44 Rocket 4.1 18:32:07 10° S 18:35:27 30° SE 18:35:27 30° SE
Cosmos 2278 4.3 18:32:17 10° SSE 18:36:46 33° ESE 18:36:46 33° ESE
CZ-4B R/B 4.4 18:36:20 10° NNW 18:38:18 15° WNW 18:40:15 10° WSW
FALCON 9 DEB 3.9 18:35:46 10° W 18:38:52 40° NNW 18:39:09 39° N
Cosmos 2219 3.9 18:33:21 10° NW 18:38:58 55° WSW 18:44:34 10° S
DMSP B5D1-3 4.4 18:34:49 10° NNE 18:39:57 64° ESE 18:45:03 10° S
USA 307 2.9 18:36:07 10° NW 18:40:22 60° NNE 18:40:52 55° ENE
Meteor 2-10 Rocket 3.4 18:38:36 10° S 18:43:56 89° E 18:49:06 10° N
Cosmos 1553 Rocket 4.3 18:38:07 10° SSW 18:44:27 71° W 18:50:44 10° N
USA 308 2.9 18:40:57 10° NW 18:45:13 64° NNE 18:45:31 61° NE
Cosmos 1354 Rocket 3.9 18:40:57 10° NNW 18:46:12 66° ENE 18:47:53 42° SE
Helios 1A Rocket 4.1 18:43:18 10° S 18:47:14 43° W 18:51:11 10° NNW
Cosmos 2082 3.6 18:42:01 10° NNW 18:47:47 80° ENE 18:50:45 30° SSE
FALCON 9 DEB 4.3 18:47:32 10° W 18:50:17 33° NNW 18:50:17 33° NNW
Meteor 2-15 Rocket 4.3 18:46:08 10° S 18:52:18 87° E 18:58:29 10° N
ATLAS 5 CENTAUR R/B 4.4 18:52:05 10° NNW 18:53:06 11° N 18:54:10 10° N
Okean-O 3.7 18:50:48 10° S 18:55:01 44° W 18:59:17 10° NNW
Cosmos 1992 Rocket 3.9 18:50:42 10° SSW 18:55:54 87° WNW 18:59:49 18° NNE
ARGOS 3.0 18:54:41 37° SSE 18:56:52 71° ENE 19:02:18 10° N
Cosmos 2369 3.6 18:55:07 10° SSW 19:00:49 78° ESE 19:03:11 37° NE
CZ-4 R/B 2.9 19:00:22 10° SSW 19:03:56 33° W 19:07:28 10° NNW
H-2A R/B 2.3 19:00:15 10° S 19:05:39 75° WSW 19:11:09 10° NNW
Ariane Rocket 4.1 19:07:51 30° NNE 19:07:51 30° NNE 19:10:42 10° N
Cosmos 2058 4.0 19:02:53 10° NNW 19:06:48 44° W 19:10:41 10° SSW
GEOS 3 Rocket 3.6 19:05:41 53° SSE 19:07:00 85° SW 19:12:26 10° NW
Geosat 4.0 19:06:43 34° NNE 19:08:57 77° WNW 19:13:58 10° SW
Cosmos 1408 4.0 19:07:00 10° NNW 19:10:24 37° W 19:11:40 28° SW
Cosmos 2227 Rocket 3.5 19:07:29 10° NW 19:12:41 38° WSW 19:17:51 10° S
CSL-04 Rocket 4.1 19:09:28 10° S 19:14:58 63° WSW 19:20:28 10° NNW
Atlas Centaur 2 4.2 19:11:49 10° SW 19:18:35 27° S 19:20:08 25° SSE
Cosmos 2263 Rocket 3.1 19:13:21 10° NNW 19:17:16 36° NNE 19:17:16 36° NNE
Timation 1 Rocket 4.2 19:13:43 10° NNW 19:19:47 89° WSW 19:20:34 70° SSE
SeaSat 1 2.6 19:26:15 70° WNW 19:26:15 70° WNW 19:30:44 10° NNW
SL-4 R/B 3.9 19:22:59 10° WNW 19:24:38 25° NW 19:24:38 25° NW
Cosmos 1825 4.1 19:24:23 10° NNW 19:26:28 27° NW 19:26:28 27° NW
Cosmos 1697 Rocket 3.2 19:23:23 10° SW 19:28:54 57° WNW 19:31:25 32° N
CZ-4C R/B 3.6 19:23:32 10° NNW 19:29:36 36° NNE 19:29:36 36° NNE
USA 305 4.2 19:26:47 10° WNW 19:29:36 39° WNW 19:29:36 39° WNW
NOSS 3-4 (A) 3.7 19:24:27 10° NW 19:31:24 67° NE 19:31:39 66° ENE
NOSS 3-4 (C) 3.8 19:24:34 10° NW 19:31:30 67° NE 19:31:43 66° ENE
DEBRIS 4.1 19:20:04 10° WSW 19:36:20 80° NNW 19:36:49 74° NNE
USA 215 3.4 19:39:00 57° NNE 19:39:00 57° NNE 19:45:18 10° NW
NOSS 3-3 (A) 4.3 19:34:27 10° SW 19:40:14 59° NW 19:41:47 47° N
NOSS 3-3 (C) 4.3 19:34:32 10° SW 19:40:22 59° NW 19:41:53 47° N
Cosmos 1709 Rocket 4.4 19:34:11 10° NNW 19:40:26 60° W 19:44:29 23° SSW
Cosmos 1980 Rocket 3.3 19:45:55 10° SW 19:49:11 36° SW 19:49:11 36° SW
ATLAS 2AS CENTAUR R/B 2.9 19:46:05 10° NW 19:52:43 64° N 19:52:43 64° N
Lacrosse 5 3.9 20:00:38 10° NW 20:02:41 22° NNW 20:02:41 22° NNW
CZ-4C R/B 4.4 21:11:49 10° NW 21:14:47 28° NW 21:14:47 28° NW
